| time (UTC) | temp F | wind direction | speed MPH | gust MPH | rain 1hr in | rain 24hr in | rain mn in | humidity % | barometer mb |
| 20260902121512 | 53 | 141 | 0.0 | 0.0 | 0.00 | 0.00 | 0.00 | 1 | 1005.7 |
| 20260902120007 | 55 | 141 | 0.0 | 0.0 | 0.00 | 0.00 | 0.00 | 1 | 1005.8 |
| 20260902114502 | 55 | 141 | 0.0 | 0.0 | 0.00 | 0.00 | 0.00 | 10 | 1005.6 |
| 20260902113105 | 56 | 141 | 0.0 | 0.0 | 0.00 | 0.00 | 0.00 | 45 | 1005.6 |
| 20260902111557 | 57 | 141 | 0.0 | 0.0 | 0.00 | 0.00 | 0.00 | 50 | 1005.4 |
| 20260902110055 | 58 | 141 | 0.0 | 0.0 | 0.00 | 0.00 | 0.00 | 52 | 1005.4 |
| 20260902104603 | 58 | 141 | 0.0 | 0.0 | 0.00 | 0.00 | 0.00 | 53 | 1005.5 |
| 20260902103058 | 58 | 165 | 0.0 | 0.0 | 0.00 | 0.00 | 0.00 | 53 | 1005.4 |
| 20260902101550 | 59 | 166 | 0.0 | 0.0 | 0.00 | 0.00 | 0.00 | 55 | 1005.3 |
| 20260902100042 | 61 | 167 | 0.0 | 0.0 | 0.00 | 0.00 | 0.00 | 54 | 1005.4 |
| 20260902094538 | 62 | 360 | 0.0 | 0.0 | 0.00 | 0.00 | 0.00 | 53 | 1005.4 |
| 20260902093042 | 63 | 360 | 0.0 | 0.0 | 0.00 | 0.00 | 0.00 | 52 | 1005.5 |
| 20260902091540 | 63 | 197 | 0.0 | 0.0 | 0.00 | 0.00 | 0.00 | 52 | 1005.6 |
| 20260902090037 | 63 | 180 | 0.0 | 0.0 | 0.00 | 0.00 | 0.00 | 53 | 1005.8 |
| 20260902084536 | 63 | 213 | 0.0 | 0.0 | 0.00 | 0.00 | 0.00 | 52 | 1005.7 |
| 20260902083048 | 63 | 207 | 0.0 | 0.0 | 0.00 | 0.00 | 0.00 | 52 | 1005.8 |
| 20260902081535 | 63 | 212 | 0.0 | 0.0 | 0.00 | 0.00 | 0.00 | 52 | 1005.9 |
| 20260902080034 | 64 | 206 | 0.0 | 0.0 | 0.00 | 0.00 | 0.00 | 52 | 1005.8 |
| 20260902074532 | 64 | 202 | 0.0 | 0.0 | 0.00 | 0.00 | 0.00 | 51 | 1005.6 |
| 20260902073031 | 62 | 177 | 0.0 | 0.0 | 0.00 | 0.00 | 0.00 | 51 | 1005.6 |
| 20260902071529 | 62 | 169 | 0.0 | 0.0 | 0.00 | 0.00 | 0.00 | 51 | 1005.6 |
| 20260902070026 | 63 | 154 | 0.0 | 0.0 | 0.00 | 0.00 | 0.00 | 50 | 1005.7 |
| 20260902064525 | 62 | 164 | 0.0 | 0.0 | 0.00 | 0.00 | 0.00 | 49 | 1005.6 |
| 20260902063023 | 62 | 167 | 0.0 | 0.0 | 0.00 | 0.00 | 0.00 | 48 | 1005.7 |
| 20260902061537 | 62 | 167 | 0.0 | 0.0 | 0.00 | 0.00 | 0.00 | 48 | 1005.6 |
| 20260902060019 | 63 | 167 | 0.0 | 0.0 | 0.00 | 0.00 | 0.00 | 49 | 1005.7 |
| 20260902054521 | 63 | 166 | 0.0 | 0.0 | 0.00 | 0.00 | 0.00 | 49 | 1005.8 |
| 20260902053011 | 63 | 171 | 0.0 | 0.0 | 0.00 | 0.00 | 0.00 | 49 | 1005.8 |
| 20260902051507 | 64 | 171 | 0.0 | 0.0 | 0.00 | 0.00 | 0.00 | 50 | 1005.9 |
| 20260902050007 | 64 | 174 | 0.0 | 0.0 | 0.00 | 0.00 | 0.00 | 50 | 1006.1 |
| 20260902044557 | 65 | 174 | 0.0 | 0.0 | 0.00 | 0.00 | 0.00 | 49 | 1006.2 |
| 20260902043114 | 65 | 174 | 0.0 | 0.0 | 0.00 | 0.00 | 0.00 | 49 | 1006.3 |
| 20260902041548 | 65 | 174 | 0.0 | 0.0 | 0.00 | 0.00 | 0.00 | 49 | 1006.3 |
| 20260902040046 | 65 | 174 | 0.0 | 0.0 | 0.00 | 0.00 | 0.00 | 49 | 1006.4 |
| 20260902034540 | 64 | 174 | 0.0 | 0.0 | 0.00 | 0.00 | 0.00 | 49 | 1006.1 |
| 20260902033042 | 64 | 179 | 0.0 | 0.0 | 0.00 | 0.00 | 0.00 | 49 | 1006.0 |
| 20260902031538 | 64 | 179 | 0.0 | 0.0 | 0.00 | 0.00 | 0.00 | 49 | 1005.8 |
| 20260902030030 | 65 | 180 | 0.0 | 0.0 | 0.00 | 0.00 | 0.00 | 49 | 1005.5 |
| 20260902024522 | 66 | 180 | 0.0 | 0.0 | 0.00 | 0.00 | 0.00 | 48 | 1005.2 |
| 20260902023029 | 66 | 180 | 0.0 | 0.0 | 0.00 | 0.00 | 0.00 | 48 | 1005.1 |
| 20260902021514 | 67 | 177 | 0.0 | 0.0 | 0.00 | 0.00 | 0.00 | 47 | 1005.0 |
| 20260902020019 | 68 | 177 | 0.0 | 0.0 | 0.00 | 0.00 | 0.00 | 47 | 1004.8 |
| 20260902014511 | 69 | 177 | 0.0 | 0.0 | 0.00 | 0.00 | 0.00 | 46 | 1004.8 |
| 20260902013102 | 70 | 178 | 0.0 | 0.0 | 0.00 | 0.00 | 0.00 | 45 | 1004.8 |
| 20260902011627 | 70 | 168 | 0.0 | 0.0 | 0.00 | 0.00 | 0.00 | 45 | 1004.8 |
| 20260902010052 | 71 | 183 | 0.0 | 0.0 | 0.00 | 0.00 | 0.00 | 43 | 1005.0 |
| 20260902004549 | 71 | 180 | 0.0 | 0.0 | 0.00 | 0.00 | 0.00 | 42 | 1005.1 |
| 20260902003043 | 72 | 171 | 0.0 | 0.0 | 0.00 | 0.00 | 0.00 | 41 | 1005.0 |
| 20260902001539 | 73 | 205 | 0.0 | 0.0 | 0.00 | 0.00 | 0.00 | 39 | 1005.1 |
| 20260902000039 | 73 | 176 | 0.0 | 0.0 | 0.00 | 0.00 | 0.00 | 38 | 1005.3 |
| 20260901234529 | 74 | 178 | 0.0 | 0.0 | 0.00 | 0.00 | 0.00 | 38 | 1005.3 |
| 20260901233026 | 75 | 164 | 0.0 | 0.0 | 0.00 | 0.00 | 0.00 | 41 | 1005.4 |
| 20260901231521 | 75 | 185 | 0.0 | 0.0 | 0.00 | 0.00 | 0.00 | 41 | 1005.5 |
| 20260901230016 | 75 | 207 | 0.0 | 0.0 | 0.00 | 0.00 | 0.00 | 37 | 1005.7 |
| 20260901224522 | 75 | 230 | 0.0 | 0.0 | 0.00 | 0.00 | 0.00 | 36 | 1005.7 |
| 20260901223006 | 75 | 205 | 0.0 | 0.0 | 0.00 | 0.00 | 0.00 | 37 | 1006.0 |
| 20260901211600 | 74 | 198 | 0.0 | 11.0 | 0.00 | 0.00 | 0.00 | 39 | 1006.7 |
| 20260901210056 | 73 | 163 | 0.0 | 0.0 | 0.00 | 0.00 | 0.00 | 41 | 1007.0 |
| 20260901204602 | 74 | 178 | 0.0 | 1.0 | 0.00 | 0.00 | 0.00 | 42 | 1007.3 |
| 20260901203047 | 74 | 203 | 0.0 | 1.0 | 0.00 | 0.00 | 0.00 | 41 | 1007.5 |
| 20260901201542 | 74 | 157 | 0.0 | 0.0 | 0.00 | 0.00 | 0.00 | 38 | 1007.7 |
| 20260901200100 | 73 | 167 | 0.0 | 0.0 | 0.00 | 0.00 | 0.00 | 41 | 1007.9 |
| 20260901194540 | 73 | 360 | 0.0 | 0.0 | 0.00 | 0.00 | 0.00 | 43 | 1008.0 |
| 20260901193028 | 72 | 167 | 0.0 | 1.0 | 0.00 | 0.00 | 0.00 | 43 | 1008.4 |
| 20260901191530 | 71 | 360 | 0.0 | 1.0 | 0.00 | 0.00 | 0.00 | 43 | 1008.6 |
| 20260901190023 | 70 | 172 | 0.0 | 1.0 | 0.00 | 0.00 | 0.00 | 43 | 1008.7 |
| 20260901184515 | 70 | 159 | 0.0 | 0.0 | 0.00 | 0.00 | 0.00 | 43 | 1008.8 |
| 20260901183011 | 71 | 159 | 0.0 | 1.0 | 0.00 | 0.00 | 0.00 | 44 | 1008.7 |
| 20260901181507 | 71 | 148 | 0.0 | 15.0 | 0.00 | 0.00 | 0.00 | 43 | 1008.9 |
| 20260901180002 | 72 | 153 | 0.0 | 0.0 | 0.00 | 0.00 | 0.00 | 43 | 1009.0 |
| 20260901174557 | 72 | 360 | 0.0 | 1.0 | 0.00 | 0.00 | 0.00 | 43 | 1009.2 |
| 20260901173053 | 72 | 174 | 0.0 | 1.0 | 0.00 | 0.00 | 0.00 | 43 | 1009.4 |
| 20260901171559 | 70 | 186 | 0.0 | 2.0 | 0.00 | 0.00 | 0.00 | 43 | 1009.5 |
| 20260901170055 | 70 | 176 | 0.0 | 3.0 | 0.00 | 0.00 | 0.00 | 42 | 1009.7 |
| 20260901164541 | 70 | 205 | 0.0 | 5.0 | 0.00 | 0.00 | 0.00 | 36 | 1009.8 |
| 20260901163042 | 69 | 175 | 0.0 | 1.0 | 0.00 | 0.00 | 0.00 | 40 | 1010.0 |
| 20260901161535 | 68 | 187 | 0.0 | 1.0 | 0.00 | 0.00 | 0.00 | 41 | 1010.2 |
| 20260901160026 | 67 | 360 | 0.0 | 10.0 | 0.00 | 0.00 | 0.00 | 39 | 1010.6 |
| 20260901154521 | 66 | 202 | 0.0 | 1.0 | 0.00 | 0.00 | 0.00 | 30 | 1010.8 |
| 20260901153021 | 63 | 257 | 0.0 | 0.0 | 0.00 | 0.00 | 0.00 | 4 | 1011.0 |
| 20260901151528 | 60 | 257 | 0.0 | 0.0 | 0.00 | 0.00 | 0.00 | 1 | 1011.1 |
| 20260901150010 | 57 | 223 | 0.0 | 0.0 | 0.00 | 0.00 | 0.00 | 1 | 1011.2 |
| 20260901144506 | 56 | 211 | 0.0 | 0.0 | 0.00 | 0.00 | 0.00 | 1 | 1011.2 |
| 20260901143119 | 55 | 207 | 0.0 | 0.0 | 0.00 | 0.00 | 0.00 | 1 | 1011.3 |
| 20260901141603 | 54 | 169 | 0.0 | 0.0 | 0.00 | 0.00 | 0.00 | 1 | 1011.3 |
| 20260901140128 | 54 | 153 | 0.0 | 0.0 | 0.00 | 0.00 | 0.00 | 1 | 1011.5 |
| 20260901134546 | 53 | 153 | 0.0 | 0.0 | 0.00 | 0.00 | 0.00 | 1 | 1011.5 |
| 20260901133042 | 51 | 153 | 0.0 | 0.0 | 0.00 | 0.00 | 0.00 | 1 | 1011.3 |
| 20260901131541 | 51 | 153 | 0.0 | 0.0 | 0.00 | 0.00 | 0.00 | 1 | 1011.2 |
| 20260901130037 | 51 | 153 | 0.0 | 0.0 | 0.00 | 0.00 | 0.00 | 1 | 1011.2 |
| 20260901124527 | 52 | 153 | 0.0 | 0.0 | 0.00 | 0.00 | 0.00 | 1 | 1011.0 |
| 20260901123023 | 53 | 152 | 0.0 | 0.0 | 0.00 | 0.00 | 0.00 | 1 | 1010.9 |